Hovedside
METAR-TAF:

METAR-TAF

Lufthavner :

Scappoose Industrial Airpark

Scappoose, Oregon, USA

breddegrad: 45-46-09N, lengdegrad: 122-51-44W, høyde over havet: 16 m

Gjeldene værobservasjon

Denne rapporten ble laget for 13 minutter siden, klokken 11:53 UTC
Vind 9 kt fra Nord
Temperatur 9°C
Luftfuktighet 93%
Trykk 1022 hPa
Sikt: 16.1 km
Skyfri himmel

METAR: KSPB 201153Z AUTO 36009KT 10SM CLR 09/08 A3018 RMK AO2 SLP220 T00940083 10133 20044 56004

Tid: 05:06 (12:06 UTC)


TAF: fraværende

Værobservasjoner og værvarsel for over 4000 flyplasser (METAR- og TAF-rapporter).

Tilgjengelige stasjoner er representert av de røde og gule prikkene på kartet.

Hold musepekeren over prikken for å se navnet på stasjonen.

Klikk så for å se værobservasjoner og -varsler.

For å forandre kartet kan du klikke på den grønne knappen med svart kryss for å zoome inn, på den grønne knappen med strek for å zoome ut, eller på de grønne pilene for å se tilstøtende kart.


METAR-TAF: